SCP
-0 -0 0 0 0 -0 -0 -0 -0 0 -0 -0 0 0 -0 0 0 0 0 0 0 0 0 0 0 0 0 0 0 0 0 0 0 0 0 0 -0 -0 -0 -0 0 0 0 0 0 0 0 0 0
0 0 0 0 0 -0 0 0 -0 -0 -0 -0 0 0 0 0 0 0 0 -0 -0 0 0 0 0 -0 -0 -0 -0 0 -0 -0 -0 -0 -0 -0 -0 -0 -0 -0 -0 -0 -0 0 0 0 0 0 0
-0 0 0 0 0 0 0 -0 0 -0 -0 -0 0 0 -0 0 0 0 0 -0 -0 -0 0 0 -0 -0 -0 -0 -0 -0 -0 -0 -0 -0 -0 -0 -0 -0 -0 -0 -0 -0 -0 -0 0 0 0 0 0
0 0 0 0 0 0 0 -0 -0 -0 -0 -0 -0 0 -0 0 -0 0 0 -0 -0 -0 0 -0 -0 -0 -0 -0 -0 -0 -0 -0 -0 -0 -0 -0 -0 -0 -0 -0 -0 -0 -0 -0 -0 0 0 0 0
0 0 0 0 0 0 0 0 0 -0 -0 -0 -0 -0 -0 0 0 0 0 0 0 0 0 -0 -0 -0 -0 -0 -0 -0 -0 -0 -0 -0 -0 -0 -0 -0 -0 -0 -0 -0 -0 -0 -0 0 0 0 0
0 0 0 0 0 0 0 0 0 0 0 -0 -0 0 -0 0 0 0 0 0 0 0 0 0 -0 0 0 -0 -0 -0 -0 -0 -0 -0 -0 -0 -0 -0 -0 -0 -0 -0 -0 -0 -0 0 0 0 0
0 0 0 0 0 0 0 0 0 0 0 0 0 0 -0 -0 0 0 0 0 0 0 0 0 0 0 0 0 0 0 0 -0 -0 -0 -0 -0 -0 0 0 -0 -0 -0 -0 -0 -0 0 0 0 0
0 0 0 0 0 0 0 0 0 0 0 0 0 0 0 -0 0 0 0 0 0 0 0 0 0 0 0 0 0 0 0 0 0 0 0 0 0 0 0 0 0 0 -0 -0 0 0 0 0 0
0 0 0 0 0 0 0 0 0 0 0 0 0 0 0 0 0 0 0 0 0 0 0 0 0 0 0 0 0 0 0 0 0 0 0 0 0 0 0 0 0 0 0 -0 0 0 0 0 0
0 0 0 0 0 0 0 0 0 0 0 0 0 0 0 0 0 0 0 0 0 0 0 0 0 0 0 0 0 0 0 0 0 0 0 0 0 0 0 0 0 0 0 0 0 0 0 0 0
0 0 0 0 0 0 0 0 0 0 0 0 0 0 0 0 0 0 0 0 0 0 0 0 0 0 0 0 0 0 0 0 0 0 0 0 0 0 0 0 0 0 0 0 0 0 0 0 0
0 0 0 0 0 0 0 0 0 0 0 0 0 0 0 0 0 0 0 0 0 0 0 0 0 0 0 0 0 0 0 0 0 0 0 0 0 0 0 0 0 0 0 0 0 0 0 0 0
0 0 0 0 0 0 0 0 0 0 0 0 0 0 0 0 0 0 0 0 0 0 0 0 0 0 0 0 0 0 0 0 0 0 0 0 0 0 0 0 0 0 0 0 0 0 0 0 0
0 0 0 0 0 0 0 0 0 -0 0 0 0 0 0 0 0 0 0 0 0 0 0 0 0 0 0 0 0 0 0 0 0 0 0 0 0 0 0 0 0 0 0 0 0 0 0 0 0
0 0 0 0 0 0 0 0 0 0 0 0 0 0 0 0 0 0 0 0 0 0 0 0 0 0 0 0 0 0 0 0 0 0 0 0 0 0 0 0 0 0 0 0 0 0 0 0 0
0 0 0 0 0 0 0 0 0 0 0 0 0 0 0 0 0 0 0 0 0 0 0 0 0 0 0 0 0 0 0 0 0 0 0 0 0 0 0 0 0 0 0 0 0 0 0 0 0
0 0 0 0 0 0 0 0 -0 0 0 0 0 0 0 0 0 0 0 0 0 0 0 0 0 0 0 0 0 0 0 0 0 0 0 0 0 0 0 0 0 0 0 0 0 0 0 0 0
0 0 0 0 0 0 0 0 0 0 0 0 0 0 0 0 0 0 0 0 0 0 0 0 0 0 0 0 0 0 0 0 0 0 0 0 0 0 0 0 0 0 0 0 0 0 0 0 0
0 0 0 0 0 0 0 0 0 0 0 0 0 0 0 0 0 0 0 0 0 0 0 0 0 0 0 0 0 0 0 0 0 0 0 0 0 0 0 0 0 0 0 0 0 0 0 0 0
0 0 0 0 0 0 0 0 0 0 0 0 0 0 0 0 0 0 0 0 0 0 0 0 0 0 0 0 0 0 0 0 0 0 0 0 0 0 0 0 0 0 0 0 0 0 0 0 0
0 0 0 0 0 0 0 -0 0 0 0 0 0 0 0 0 0 0 0 0 0 0 0 0 0 0 0 0 0 0 0 0 0 0 0 0 0 0 0 0 0 0 0 0 0 0 0 0 0
0 0 0 0 0 0 0 -0 -0 0 0 0 0 0 0 0 0 0 0 0 0 0 0 0 0 0 0 0 0 0 0 0 0 0 0 0 0 0 0 0 0 0 0 0 0 0 0 0 0
0 0 0 0 0 0 0 0 0 0 0 0 0 0 0 0 0 0 0 0 0 0 0 0 0 0 0 0 0 0 0 0 0 0 0 0 0 0 0 0 0 0 0 0 0 0 0 0 0
0 0 0 0 0 0 0 0 0 0 0 0 0 0 0 0 0 0 0 0 0 0 0 0 0 0 0 0 0 0 0 0 0 0 0 0 0 0 0 0 0 0 0 0 0 0 0 0 0
0 0 0 0 0 0 0 0 0 0 0 0 0 0 0 0 0 0 0 0 0 0 0 0 0 0 0 0 0 0 0 0 0 0 0 0 0 0 0 0 0 0 0 0 0 0 0 0 0
0 0 0 0 0 0 0 0 0 0 0 0 0 0 0 0 0 0 0 0 0 0 0 0 0 0 0 0 0 0 0 0 0 0 0 0 0 0 0 0 0 0 0 0 0 0 0 0 0
0 0 0 0 0 0 0 0 0 0 0 0 0 0 0 0 0 0 0 0 0 0 0 0 0 0 0 0 0 0 0 0 0 0 0 0 0 0 0 0 0 0 0 0 0 0 0 0 0
0 0 0 0 0 0 0 0 0 0 0 0 0 0 0 0 0 0 0 0 0 0 0 0 0 0 0 0 0 0 0 0 0 0 0 0 0 0 0 0 0 0 0 0 0 0 0 0 0
0 0 0 0 0 0 0 0 0 0 0 0 0 0 0 0 0 0 0 0 0 -0 -0 0 0 0 0 0 0 0 0 0 0 0 0 0 0 0 0 0 0 0 0 0 0 0 0 0 0
0 0 0 0 0 0 0 0 0 0 0 0 0 0 0 0 0 0 0 0 0 0 0 0 0 0 0 0 0 0 0 0 0 0 0 0 0 0 0 0 0 0 0 0 0 0 0 0 0
Wind_Speed_500mb
34 29 31 13 9 10 4 5 8 7 7 13 17 16 18 16 6 9 32 26 22 30 32 28 24 19 18 16 15 15 16 17 24 26 35 37 30 23 20 24 31 34 33 35 38 41 41 41 42
37 28 18 6 8 8 5 7 14 7 15 12 11 19 11 4 10 28 30 29 22 29 32 29 24 21 20 16 15 13 15 19 23 24 33 31 37 24 17 24 32 31 30 33 37 38 37 37 37
29 25 10 7 6 6 6 6 13 9 11 6 6 15 10 6 13 41 24 31 27 30 32 28 25 21 19 18 16 13 16 19 22 23 29 34 27 32 24 26 32 28 28 32 34 34 34 33 33
33 15 5 8 6 8 10 9 24 15 9 7 8 13 17 10 11 14 39 33 26 25 35 31 28 23 18 17 18 17 16 16 19 24 25 32 29 19 29 19 23 26 26 29 31 30 29 29 29
22 9 6 7 3 6 10 17 22 8 13 5 8 10 12 12 12 17 43 38 31 25 28 32 30 26 21 19 19 18 18 22 16 14 20 26 28 22 30 20 18 24 24 27 27 26 26 26 25
14 10 8 6 3 6 7 5 9 15 17 8 5 13 9 9 11 31 41 38 33 30 27 30 31 28 25 22 19 16 18 17 16 15 13 18 26 24 29 23 17 18 20 22 24 23 23 22 22
5 5 5 9 6 2 7 11 7 9 14 5 5 7 13 15 14 33 39 34 32 34 29 31 36 32 28 23 21 18 17 16 15 17 16 16 20 24 24 29 23 17 21 19 20 19 19 19 19
6 6 5 6 7 1 12 8 7 12 4 10 5 7 10 19 18 33 36 33 31 34 31 34 38 34 32 30 26 22 20 20 17 16 17 16 17 20 23 24 24 22 21 20 18 16 16 16 16
3 5 5 7 4 6 14 7 6 5 7 5 6 3 10 19 22 35 42 42 38 37 33 36 43 37 36 35 31 29 25 25 24 20 18 20 19 19 20 21 21 24 21 21 19 16 15 14 14
8 7 14 13 11 6 8 13 16 5 5 6 8 9 13 18 23 32 42 46 45 43 39 37 39 41 41 40 39 36 32 30 28 25 20 25 25 23 22 22 22 24 23 21 20 18 16 15 15
12 10 2 22 17 17 2 6 5 10 2 12 5 18 22 24 24 28 34 37 36 37 40 39 39 42 42 42 45 45 41 37 35 31 25 28 31 29 28 28 27 26 27 26 24 22 20 19 17
5 21 15 17 13 9 8 15 10 8 19 24 17 4 15 24 26 23 28 36 38 42 41 44 45 46 44 45 44 43 46 44 42 37 32 36 37 34 31 30 30 29 28 29 29 26 25 24 20
6 14 26 31 30 7 10 16 13 37 26 21 31 24 18 25 28 29 26 29 34 41 42 46 54 54 51 51 49 50 48 47 44 43 40 42 44 41 36 35 36 34 34 34 33 32 31 28 25
2 3 14 22 24 16 5 14 12 51 39 40 41 47 45 43 41 37 34 37 40 42 46 46 53 60 61 59 56 51 50 49 48 47 45 46 47 45 42 41 41 40 38 37 36 35 34 31 30
8 2 13 14 15 9 6 14 17 72 54 50 52 51 48 39 39 45 47 46 48 49 46 54 54 57 65 66 64 59 56 55 53 52 48 49 50 50 48 48 46 44 41 40 40 39 38 38 35
5 6 1 7 20 17 18 18 15 36 44 53 60 62 60 54 53 53 54 51 55 60 54 52 57 61 65 70 71 68 64 63 61 57 55 54 53 54 53 53 53 46 46 45 46 44 44 43 40
6 6 13 11 32 14 21 3 29 25 31 27 30 33 48 52 51 40 44 47 49 54 55 57 60 60 65 70 74 72 70 70 70 66 65 62 60 59 59 60 56 52 52 53 52 50 49 48 45
13 9 9 12 10 11 16 25 18 42 50 49 53 51 49 45 38 39 38 39 45 51 55 60 61 63 59 67 72 76 75 77 78 77 74 70 67 66 65 66 62 59 59 59 59 56 54 52 48
6 8 16 13 23 8 16 20 16 30 35 47 54 51 52 59 58 58 58 53 48 57 58 60 62 69 69 70 75 80 87 85 87 86 83 80 80 74 72 72 69 69 69 66 62 59 59 59 52
11 11 9 13 7 8 13 21 17 21 33 55 61 67 78 69 61 60 57 53 53 55 64 61 65 71 76 78 80 81 82 88 89 88 88 88 89 85 79 80 78 76 74 73 71 67 65 63 58
18 18 7 11 15 8 12 27 21 23 32 50 68 76 79 84 82 78 73 67 59 56 56 68 67 71 73 78 80 82 84 88 92 96 96 96 96 93 88 87 86 83 81 82 78 74 73 71 67
26 19 22 5 8 7 8 13 14 13 31 22 51 55 64 71 70 69 66 62 55 58 60 66 68 78 80 77 85 87 92 96 94 93 95 100 102 99 97 95 95 92 88 89 88 82 80 75 79
12 8 10 10 9 5 3 8 13 9 14 30 28 45 54 56 53 52 49 50 46 37 43 57 60 66 79 83 85 85 91 93 94 96 97 98 104 104 102 103 104 102 98 97 96 92 91 88 87
5 8 6 7 4 10 15 14 10 12 14 12 12 24 9 17 7 16 16 13 11 18 26 32 39 48 64 81 86 90 92 90 95 98 102 99 103 104 97 104 110 111 108 107 104 101 99 98 96
19 12 4 7 10 14 16 15 32 10 24 11 17 28 4 7 3 13 9 5 14 17 13 17 29 44 51 70 88 91 94 95 98 98 99 100 105 107 102 95 101 111 114 115 111 110 107 107 105
19 21 11 14 10 8 10 16 12 18 46 60 56 14 10 10 19 23 18 23 24 25 20 22 27 27 43 55 65 79 91 99 103 102 102 103 104 108 103 97 93 98 104 110 114 115 114 113 112
15 16 13 8 4 3 9 14 16 18 22 30 29 20 20 22 18 10 16 23 27 34 24 24 27 28 29 33 55 62 73 90 103 104 104 101 103 105 104 100 95 92 95 100 108 113 114 116 117
18 13 7 1 7 8 10 10 18 13 13 17 19 16 28 23 12 13 20 28 29 33 31 30 35 38 35 32 32 51 67 76 88 95 101 104 102 101 100 100 96 91 89 88 93 102 105 113 115
15 11 11 11 10 9 4 11 14 25 20 10 12 28 23 19 10 18 26 30 33 35 40 40 38 40 39 36 38 40 48 69 83 88 91 97 101 102 101 97 93 92 85 87 88 92 95 105 110
34 37 22 11 10 7 3 14 12 13 13 26 21 19 19 16 18 21 23 28 39 46 43 43 40 37 39 43 47 49 49 49 62 85 90 87 91 96 99 96 93 94 89 85 94 95 90 95 106
Wind_Direction_500mb
345 347 338 344 52 67 74 67 115 85 62 76 45 64 112 65 58 146 139 183 178 168 164 163 153 140 133 127 117 107 113 120 132 131 116 109 114 96 95 101 108 106 103 104 100 99 100 101 97
343 352 352 11 82 73 300 110 89 64 105 102 63 73 46 90 79 140 151 183 187 174 169 163 157 147 139 133 125 115 122 128 130 128 122 121 118 114 107 108 107 108 105 103 104 104 105 104 101
346 356 324 87 94 115 139 145 124 94 87 86 90 63 85 78 112 152 167 185 184 168 172 166 161 152 142 139 134 129 132 136 131 131 133 123 129 133 112 117 116 112 111 109 109 109 108 105 102
348 360 294 80 124 21 94 155 124 123 92 75 81 82 98 112 141 160 166 181 177 175 172 171 167 163 155 146 146 136 133 141 138 134 135 136 129 142 120 119 121 120 119 116 115 112 110 106 102
359 311 7 47 19 101 69 127 143 157 139 122 95 133 100 129 185 164 166 176 189 172 163 174 174 170 166 164 158 144 136 142 132 139 143 147 138 135 129 134 129 128 124 119 118 117 115 111 106
348 4 37 8 71 129 80 63 125 121 132 129 75 111 130 169 182 160 171 175 185 183 185 184 182 178 175 172 168 157 155 158 158 151 158 160 152 143 142 146 146 140 131 127 124 124 122 118 113
23 67 246 300 255 164 173 146 72 170 138 128 128 72 129 162 169 165 172 180 190 193 195 192 188 186 185 182 178 173 176 182 179 170 173 179 177 163 163 158 159 150 148 139 132 132 131 129 125
357 75 297 292 306 332 159 123 106 69 108 133 122 142 176 179 161 166 172 184 197 201 197 197 196 196 193 193 191 188 191 203 199 186 189 193 193 191 180 181 176 163 163 157 151 148 143 142 140
168 55 239 258 307 274 167 125 125 102 113 106 105 164 159 166 171 169 175 191 201 212 208 196 202 202 201 202 201 201 202 210 219 211 202 206 203 201 206 198 190 187 180 173 171 168 161 158 155
160 167 215 246 359 325 218 160 156 123 138 177 192 222 207 192 190 189 193 201 208 207 213 207 206 209 206 204 208 209 212 216 225 231 223 220 213 207 210 215 210 207 199 193 188 188 186 179 175
189 216 219 278 16 20 79 254 149 143 227 235 171 230 219 208 201 207 213 216 219 222 216 219 213 215 213 210 210 209 215 219 225 231 230 226 220 217 215 216 216 217 208 206 206 204 203 202 200
199 248 256 293 325 353 330 325 329 245 232 260 288 318 236 226 223 225 233 228 227 230 229 226 225 221 224 224 223 219 216 219 225 229 226 224 230 229 224 222 223 223 219 217 217 216 215 220 227
202 254 258 271 310 264 276 290 287 287 258 247 256 280 241 247 254 249 257 253 244 241 242 231 229 230 233 231 230 231 221 223 227 230 226 224 229 236 235 232 232 229 225 226 226 225 226 227 231
263 329 293 279 292 276 220 263 308 270 264 263 264 263 269 259 255 253 245 252 250 255 252 246 233 234 237 237 236 235 233 227 227 230 228 226 230 234 235 234 232 232 231 232 231 232 233 235 236
277 27 334 306 291 260 261 274 224 259 264 261 258 259 258 261 252 255 255 253 254 256 265 254 248 240 238 238 241 240 239 237 234 234 231 229 230 233 234 235 234 233 233 232 235 234 236 237 239
149 77 331 264 241 246 187 248 257 262 272 266 264 263 259 257 252 258 254 253 248 251 251 258 256 251 243 241 240 241 240 237 240 238 237 234 234 234 234 234 236 235 235 235 235 236 237 241 242
220 188 220 283 247 242 192 204 241 262 277 273 280 282 272 261 250 252 253 253 246 243 248 251 253 254 250 245 243 241 242 240 240 241 241 239 236 235 236 236 237 235 235 236 237 236 237 241 245
201 198 214 225 269 196 233 243 255 258 270 283 288 285 284 278 264 256 252 258 251 242 248 251 253 254 254 249 246 246 243 242 243 244 243 242 240 237 236 238 237 236 236 237 236 237 239 241 244
204 209 206 248 259 229 247 251 258 272 278 282 285 283 277 271 267 261 257 256 262 251 246 242 246 251 249 246 242 240 242 241 241 243 244 244 243 239 236 239 238 237 238 240 241 240 239 240 239
254 272 264 285 271 305 309 282 257 262 265 267 265 266 266 264 261 260 261 257 257 261 252 246 249 249 252 252 252 247 247 247 247 246 246 246 245 243 239 239 239 238 239 240 240 240 239 239 237
219 227 235 227 325 328 337 293 269 270 274 271 259 257 261 260 261 262 260 260 258 259 254 251 254 253 254 256 253 249 245 245 247 247 249 248 246 244 243 242 242 241 241 243 243 241 238 239 237
230 208 225 260 339 256 79 289 259 276 277 277 265 260 253 260 260 264 262 263 259 255 258 258 253 251 254 254 251 251 249 246 250 253 254 253 250 247 246 245 244 243 243 244 245 245 243 240 241
213 148 185 201 238 290 213 296 275 210 276 277 275 263 254 256 257 256 263 261 258 271 263 257 259 258 254 252 253 255 253 256 257 256 255 256 257 252 248 248 248 246 245 246 247 247 244 243 242
171 121 109 77 77 265 194 191 240 218 217 245 191 17 102 72 161 133 155 182 235 265 262 253 254 262 260 253 253 255 257 258 256 255 255 257 259 259 253 249 250 250 249 248 248 249 249 248 246
166 140 176 200 206 234 196 194 247 281 281 246 276 309 65 10 193 186 190 119 46 9 346 347 275 256 257 259 254 254 259 260 259 260 260 260 260 260 262 255 250 251 252 252 251 250 251 251 249
182 175 164 182 192 237 178 232 248 234 247 260 273 254 142 115 119 104 53 26 13 4 343 329 325 331 261 256 262 263 259 259 261 262 261 261 261 263 265 265 263 257 255 255 253 252 252 252 253
186 201 160 95 27 126 224 288 288 248 268 259 235 196 149 132 136 67 30 8 350 341 332 328 325 320 313 279 260 266 267 262 259 262 262 262 261 262 263 263 264 265 262 258 256 254 256 255 254
180 155 168 24 205 234 253 256 234 311 265 246 251 160 154 140 123 44 11 354 354 346 339 326 315 309 308 303 291 265 258 262 266 265 263 262 261 260 260 262 264 264 265 261 259 258 261 257 259
183 198 195 153 174 193 231 253 223 236 262 143 120 149 129 107 81 13 2 355 336 326 326 324 321 314 305 299 294 292 272 257 256 260 265 263 262 259 259 261 262 262 264 263 261 263 263 260 261
212 212 191 181 198 221 155 260 217 130 126 129 126 114 78 49 36 27 353 336 331 327 322 320 315 315 312 302 294 295 291 277 259 253 256 262 262 261 260 260 261 262 263 266 263 261 264 260 260
Wind_Speed_850mb
34 29 31 13 9 10 4 5 8 7 7 13 17 16 18 16 6 9 32 26 22 30 32 28 24 19 18 16 15 15 16 17 24 26 35 37 30 23 20 24 31 34 33 35 38 41 41 41 42
37 28 18 6 8 8 5 7 14 7 15 12 11 19 11 4 10 28 30 29 22 29 32 29 24 21 20 16 15 13 15 19 23 24 33 31 37 24 17 24 32 31 30 33 37 38 37 37 37
29 25 10 7 6 6 6 6 13 9 11 6 6 15 10 6 13 41 24 31 27 30 32 28 25 21 19 18 16 13 16 19 22 23 29 34 27 32 24 26 32 28 28 32 34 34 34 33 33
33 15 5 8 6 8 10 9 24 15 9 7 8 13 17 10 11 14 39 33 26 25 35 31 28 23 18 17 18 17 16 16 19 24 25 32 29 19 29 19 23 26 26 29 31 30 29 29 29
22 9 6 7 3 6 10 17 22 8 13 5 8 10 12 12 12 17 43 38 31 25 28 32 30 26 21 19 19 18 18 22 16 14 20 26 28 22 30 20 18 24 24 27 27 26 26 26 25
14 10 8 6 3 6 7 5 9 15 17 8 5 13 9 9 11 31 41 38 33 30 27 30 31 28 25 22 19 16 18 17 16 15 13 18 26 24 29 23 17 18 20 22 24 23 23 22 22
5 5 5 9 6 2 7 11 7 9 14 5 5 7 13 15 14 33 39 34 32 34 29 31 36 32 28 23 21 18 17 16 15 17 16 16 20 24 24 29 23 17 21 19 20 19 19 19 19
6 6 5 6 7 1 12 8 7 12 4 10 5 7 10 19 18 33 36 33 31 34 31 34 38 34 32 30 26 22 20 20 17 16 17 16 17 20 23 24 24 22 21 20 18 16 16 16 16
3 5 5 7 4 6 14 7 6 5 7 5 6 3 10 19 22 35 42 42 38 37 33 36 43 37 36 35 31 29 25 25 24 20 18 20 19 19 20 21 21 24 21 21 19 16 15 14 14
8 7 14 13 11 6 8 13 16 5 5 6 8 9 13 18 23 32 42 46 45 43 39 37 39 41 41 40 39 36 32 30 28 25 20 25 25 23 22 22 22 24 23 21 20 18 16 15 15
12 10 2 22 17 17 2 6 5 10 2 12 5 18 22 24 24 28 34 37 36 37 40 39 39 42 42 42 45 45 41 37 35 31 25 28 31 29 28 28 27 26 27 26 24 22 20 19 17
5 21 15 17 13 9 8 15 10 8 19 24 17 4 15 24 26 23 28 36 38 42 41 44 45 46 44 45 44 43 46 44 42 37 32 36 37 34 31 30 30 29 28 29 29 26 25 24 20
6 14 26 31 30 7 10 16 13 37 26 21 31 24 18 25 28 29 26 29 34 41 42 46 54 54 51 51 49 50 48 47 44 43 40 42 44 41 36 35 36 34 34 34 33 32 31 28 25
2 3 14 22 24 16 5 14 12 51 39 40 41 47 45 43 41 37 34 37 40 42 46 46 53 60 61 59 56 51 50 49 48 47 45 46 47 45 42 41 41 40 38 37 36 35 34 31 30
8 2 13 14 15 9 6 14 17 72 54 50 52 51 48 39 39 45 47 46 48 49 46 54 54 57 65 66 64 59 56 55 53 52 48 49 50 50 48 48 46 44 41 40 40 39 38 38 35
5 6 1 7 20 17 18 18 15 36 44 53 60 62 60 54 53 53 54 51 55 60 54 52 57 61 65 70 71 68 64 63 61 57 55 54 53 54 53 53 53 46 46 45 46 44 44 43 40
6 6 13 11 32 14 21 3 29 25 31 27 30 33 48 52 51 40 44 47 49 54 55 57 60 60 65 70 74 72 70 70 70 66 65 62 60 59 59 60 56 52 52 53 52 50 49 48 45
13 9 9 12 10 11 16 25 18 42 50 49 53 51 49 45 38 39 38 39 45 51 55 60 61 63 59 67 72 76 75 77 78 77 74 70 67 66 65 66 62 59 59 59 59 56 54 52 48
6 8 16 13 23 8 16 20 16 30 35 47 54 51 52 59 58 58 58 53 48 57 58 60 62 69 69 70 75 80 87 85 87 86 83 80 80 74 72 72 69 69 69 66 62 59 59 59 52
11 11 9 13 7 8 13 21 17 21 33 55 61 67 78 69 61 60 57 53 53 55 64 61 65 71 76 78 80 81 82 88 89 88 88 88 89 85 79 80 78 76 74 73 71 67 65 63 58
18 18 7 11 15 8 12 27 21 23 32 50 68 76 79 84 82 78 73 67 59 56 56 68 67 71 73 78 80 82 84 88 92 96 96 96 96 93 88 87 86 83 81 82 78 74 73 71 67
26 19 22 5 8 7 8 13 14 13 31 22 51 55 64 71 70 69 66 62 55 58 60 66 68 78 80 77 85 87 92 96 94 93 95 100 102 99 97 95 95 92 88 89 88 82 80 75 79
12 8 10 10 9 5 3 8 13 9 14 30 28 45 54 56 53 52 49 50 46 37 43 57 60 66 79 83 85 85 91 93 94 96 97 98 104 104 102 103 104 102 98 97 96 92 91 88 87
5 8 6 7 4 10 15 14 10 12 14 12 12 24 9 17 7 16 16 13 11 18 26 32 39 48 64 81 86 90 92 90 95 98 102 99 103 104 97 104 110 111 108 107 104 101 99 98 96
19 12 4 7 10 14 16 15 32 10 24 11 17 28 4 7 3 13 9 5 14 17 13 17 29 44 51 70 88 91 94 95 98 98 99 100 105 107 102 95 101 111 114 115 111 110 107 107 105
19 21 11 14 10 8 10 16 12 18 46 60 56 14 10 10 19 23 18 23 24 25 20 22 27 27 43 55 65 79 91 99 103 102 102 103 104 108 103 97 93 98 104 110 114 115 114 113 112
15 16 13 8 4 3 9 14 16 18 22 30 29 20 20 22 18 10 16 23 27 34 24 24 27 28 29 33 55 62 73 90 103 104 104 101 103 105 104 100 95 92 95 100 108 113 114 116 117
18 13 7 1 7 8 10 10 18 13 13 17 19 16 28 23 12 13 20 28 29 33 31 30 35 38 35 32 32 51 67 76 88 95 101 104 102 101 100 100 96 91 89 88 93 102 105 113 115
15 11 11 11 10 9 4 11 14 25 20 10 12 28 23 19 10 18 26 30 33 35 40 40 38 40 39 36 38 40 48 69 83 88 91 97 101 102 101 97 93 92 85 87 88 92 95 105 110
34 37 22 11 10 7 3 14 12 13 13 26 21 19 19 16 18 21 23 28 39 46 43 43 40 37 39 43 47 49 49 49 62 85 90 87 91 96 99 96 93 94 89 85 94 95 90 95 106
Wind_Direction_850mb
345 347 338 344 52 67 74 67 115 85 62 76 45 64 112 65 58 146 139 183 178 168 164 163 153 140 133 127 117 107 113 120 132 131 116 109 114 96 95 101 108 106 103 104 100 99 100 101 97
343 352 352 11 82 73 300 110 89 64 105 102 63 73 46 90 79 140 151 183 187 174 169 163 157 147 139 133 125 115 122 128 130 128 122 121 118 114 107 108 107 108 105 103 104 104 105 104 101
346 356 324 87 94 115 139 145 124 94 87 86 90 63 85 78 112 152 167 185 184 168 172 166 161 152 142 139 134 129 132 136 131 131 133 123 129 133 112 117 116 112 111 109 109 109 108 105 102
348 360 294 80 124 21 94 155 124 123 92 75 81 82 98 112 141 160 166 181 177 175 172 171 167 163 155 146 146 136 133 141 138 134 135 136 129 142 120 119 121 120 119 116 115 112 110 106 102
359 311 7 47 19 101 69 127 143 157 139 122 95 133 100 129 185 164 166 176 189 172 163 174 174 170 166 164 158 144 136 142 132 139 143 147 138 135 129 134 129 128 124 119 118 117 115 111 106
348 4 37 8 71 129 80 63 125 121 132 129 75 111 130 169 182 160 171 175 185 183 185 184 182 178 175 172 168 157 155 158 158 151 158 160 152 143 142 146 146 140 131 127 124 124 122 118 113
23 67 246 300 255 164 173 146 72 170 138 128 128 72 129 162 169 165 172 180 190 193 195 192 188 186 185 182 178 173 176 182 179 170 173 179 177 163 163 158 159 150 148 139 132 132 131 129 125
357 75 297 292 306 332 159 123 106 69 108 133 122 142 176 179 161 166 172 184 197 201 197 197 196 196 193 193 191 188 191 203 199 186 189 193 193 191 180 181 176 163 163 157 151 148 143 142 140
168 55 239 258 307 274 167 125 125 102 113 106 105 164 159 166 171 169 175 191 201 212 208 196 202 202 201 202 201 201 202 210 219 211 202 206 203 201 206 198 190 187 180 173 171 168 161 158 155
160 167 215 246 359 325 218 160 156 123 138 177 192 222 207 192 190 189 193 201 208 207 213 207 206 209 206 204 208 209 212 216 225 231 223 220 213 207 210 215 210 207 199 193 188 188 186 179 175
189 216 219 278 16 20 79 254 149 143 227 235 171 230 219 208 201 207 213 216 219 222 216 219 213 215 213 210 210 209 215 219 225 231 230 226 220 217 215 216 216 217 208 206 206 204 203 202 200
199 248 256 293 325 353 330 325 329 245 232 260 288 318 236 226 223 225 233 228 227 230 229 226 225 221 224 224 223 219 216 219 225 229 226 224 230 229 224 222 223 223 219 217 217 216 215 220 227
202 254 258 271 310 264 276 290 287 287 258 247 256 280 241 247 254 249 257 253 244 241 242 231 229 230 233 231 230 231 221 223 227 230 226 224 229 236 235 232 232 229 225 226 226 225 226 227 231
263 329 293 279 292 276 220 263 308 270 264 263 264 263 269 259 255 253 245 252 250 255 252 246 233 234 237 237 236 235 233 227 227 230 228 226 230 234 235 234 232 232 231 232 231 232 233 235 236
277 27 334 306 291 260 261 274 224 259 264 261 258 259 258 261 252 255 255 253 254 256 265 254 248 240 238 238 241 240 239 237 234 234 231 229 230 233 234 235 234 233 233 232 235 234 236 237 239
149 77 331 264 241 246 187 248 257 262 272 266 264 263 259 257 252 258 254 253 248 251 251 258 256 251 243 241 240 241 240 237 240 238 237 234 234 234 234 234 236 235 235 235 235 236 237 241 242
220 188 220 283 247 242 192 204 241 262 277 273 280 282 272 261 250 252 253 253 246 243 248 251 253 254 250 245 243 241 242 240 240 241 241 239 236 235 236 236 237 235 235 236 237 236 237 241 245
201 198 214 225 269 196 233 243 255 258 270 283 288 285 284 278 264 256 252 258 251 242 248 251 253 254 254 249 246 246 243 242 243 244 243 242 240 237 236 238 237 236 236 237 236 237 239 241 244
204 209 206 248 259 229 247 251 258 272 278 282 285 283 277 271 267 261 257 256 262 251 246 242 246 251 249 246 242 240 242 241 241 243 244 244 243 239 236 239 238 237 238 240 241 240 239 240 239
254 272 264 285 271 305 309 282 257 262 265 267 265 266 266 264 261 260 261 257 257 261 252 246 249 249 252 252 252 247 247 247 247 246 246 246 245 243 239 239 239 238 239 240 240 240 239 239 237
219 227 235 227 325 328 337 293 269 270 274 271 259 257 261 260 261 262 260 260 258 259 254 251 254 253 254 256 253 249 245 245 247 247 249 248 246 244 243 242 242 241 241 243 243 241 238 239 237
230 208 225 260 339 256 79 289 259 276 277 277 265 260 253 260 260 264 262 263 259 255 258 258 253 251 254 254 251 251 249 246 250 253 254 253 250 247 246 245 244 243 243 244 245 245 243 240 241
213 148 185 201 238 290 213 296 275 210 276 277 275 263 254 256 257 256 263 261 258 271 263 257 259 258 254 252 253 255 253 256 257 256 255 256 257 252 248 248 248 246 245 246 247 247 244 243 242
171 121 109 77 77 265 194 191 240 218 217 245 191 17 102 72 161 133 155 182 235 265 262 253 254 262 260 253 253 255 257 258 256 255 255 257 259 259 253 249 250 250 249 248 248 249 249 248 246
166 140 176 200 206 234 196 194 247 281 281 246 276 309 65 10 193 186 190 119 46 9 346 347 275 256 257 259 254 254 259 260 259 260 260 260 260 260 262 255 250 251 252 252 251 250 251 251 249
182 175 164 182 192 237 178 232 248 234 247 260 273 254 142 115 119 104 53 26 13 4 343 329 325 331 261 256 262 263 259 259 261 262 261 261 261 263 265 265 263 257 255 255 253 252 252 252 253
186 201 160 95 27 126 224 288 288 248 268 259 235 196 149 132 136 67 30 8 350 341 332 328 325 320 313 279 260 266 267 262 259 262 262 262 261 262 263 263 264 265 262 258 256 254 256 255 254
180 155 168 24 205 234 253 256 234 311 265 246 251 160 154 140 123 44 11 354 354 346 339 326 315 309 308 303 291 265 258 262 266 265 263 262 261 260 260 262 264 264 265 261 259 258 261 257 259
183 198 195 153 174 193 231 253 223 236 262 143 120 149 129 107 81 13 2 355 336 326 326 324 321 314 305 299 294 292 272 257 256 260 265 263 262 259 259 261 262 262 264 263 261 263 263 260 261
212 212 191 181 198 221 155 260 217 130 126 129 126 114 78 49 36 27 353 336 331 327 322 320 315 315 312 302 294 295 291 277 259 253 256 262 262 261 260 260 261 262 263 266 263 261 264 260 260